GFSFLT1_prec_pwat_063.txt.gz
Precipitable_Water
0.86 0.90 0.94 0.94 0.99 0.99 0.95 0.93 0.97 0.95 0.94 0.91 0.91 0.95 0.91 0.93 1.01 1.08 1.21 1.29 1.32 1.30 1.27 1.20 1.14 1.02 0.91 0.85 0.79 0.75 0.62 0.63
0.85 0.87 0.86 0.87 0.84 0.81 0.82 0.79 0.78 0.86 0.84 0.76 0.77 0.81 0.90 0.95 1.04 1.13 1.21 1.29 1.30 1.29 1.25 1.19 1.12 0.97 0.91 0.87 0.82 0.73 0.65 0.71
0.75 0.77 0.78 0.75 0.74 0.77 0.79 0.78 0.80 0.89 0.93 0.87 0.80 0.77 0.84 0.91 0.98 1.11 1.19 1.24 1.26 1.28 1.28 1.20 1.14 0.96 0.93 0.89 0.84 0.76 0.73 0.75
0.76 0.74 0.81 0.80 0.80 0.82 0.87 0.91 0.90 0.91 0.95 0.94 0.86 0.84 0.85 0.89 0.93 1.02 1.12 1.21 1.23 1.31 1.32 1.24 1.15 1.07 1.00 0.98 0.91 0.82 0.74 0.75
0.78 0.79 0.80 0.84 0.85 0.87 0.89 0.94 0.98 1.03 1.02 1.00 0.91 0.81 0.78 0.88 0.94 1.06 1.12 1.16 1.23 1.32 1.31 1.27 1.20 1.13 1.07 1.02 0.99 0.91 0.83 0.75
0.68 0.75 0.79 0.82 0.87 0.88 0.90 0.93 0.97 1.03 1.04 1.02 1.02 0.92 0.92 0.98 1.02 1.04 1.15 1.18 1.25 1.29 1.30 1.24 1.22 1.16 1.11 1.03 1.01 0.96 0.88 0.81
0.69 0.78 0.85 0.84 0.91 0.95 0.96 0.96 0.98 1.06 1.10 1.10 1.08 1.06 1.02 0.97 1.01 1.14 1.13 1.16 1.20 1.25 1.26 1.26 1.23 1.18 1.11 1.10 1.05 1.00 0.87 0.80
0.73 0.72 0.79 0.86 0.88 0.93 1.00 1.02 0.99 1.05 1.08 1.09 1.12 1.14 1.13 1.08 1.10 1.16 1.19 1.20 1.24 1.24 1.20 1.14 1.14 1.16 1.15 1.13 1.06 0.98 0.86 0.81
0.74 0.76 0.76 0.85 0.90 0.95 0.98 1.00 1.03 1.07 1.13 1.14 1.21 1.24 1.20 1.18 1.20 1.18 1.23 1.17 1.17 1.21 1.25 1.20 1.16 1.17 1.15 1.10 1.02 0.93 0.90 0.86
0.70 0.81 0.83 0.82 0.93 0.99 1.03 1.04 1.03 1.06 1.13 1.17 1.21 1.24 1.21 1.18 1.21 1.22 1.15 1.18 1.16 1.20 1.24 1.20 1.17 1.15 1.09 1.05 0.95 0.94 0.93 0.88
0.67 0.75 0.86 0.90 0.95 1.02 1.10 1.14 1.10 1.13 1.16 1.19 1.20 1.19 1.21 1.24 1.24 1.17 1.15 1.17 1.19 1.19 1.20 1.18 1.14 1.11 1.05 1.01 0.93 0.93 0.87 0.85
0.58 0.67 0.79 0.90 0.98 1.07 1.12 1.15 1.17 1.19 1.24 1.24 1.24 1.22 1.20 1.22 1.19 1.18 1.17 1.21 1.19 1.16 1.15 1.08 1.09 1.05 1.01 0.98 0.93 0.88 0.82 0.81
0.58 0.59 0.66 0.72 0.86 0.97 1.04 1.09 1.14 1.19 1.23 1.22 1.16 1.10 1.11 1.13 1.14 1.17 1.15 1.11 1.10 1.07 1.02 1.02 1.04 0.99 0.96 0.93 0.86 0.81 0.78 0.75
0.54 0.56 0.60 0.67 0.78 0.86 0.94 1.01 1.05 1.09 1.10 1.08 1.06 1.03 1.06 1.08 1.06 1.05 1.03 1.01 1.01 0.98 0.94 0.95 0.98 0.88 0.86 0.82 0.75 0.73 0.73 0.73
0.53 0.60 0.64 0.69 0.75 0.80 0.86 0.91 0.96 0.97 0.97 0.96 0.98 1.02 1.02 1.00 1.01 0.99 0.97 0.96 0.92 0.90 0.88 0.84 0.83 0.78 0.76 0.75 0.75 0.72 0.70 0.69
0.44 0.59 0.67 0.73 0.79 0.82 0.81 0.81 0.84 0.89 0.89 0.93 0.97 1.01 1.01 0.99 1.00 0.97 0.94 0.90 0.88 0.85 0.81 0.77 0.75 0.75 0.74 0.74 0.72 0.70 0.69 0.68
0.50 0.55 0.70 0.78 0.84 0.77 0.79 0.83 0.88 0.94 0.96 0.96 0.99 0.98 0.97 0.94 0.90 0.87 0.84 0.80 0.79 0.76 0.73 0.71 0.72 0.71 0.72 0.73 0.71 0.67 0.63 0.55
0.55 0.61 0.70 0.74 0.81 0.84 0.83 0.89 0.95 0.94 0.92 0.92 0.91 0.88 0.82 0.78 0.73 0.67 0.67 0.67 0.69 0.68 0.68 0.68 0.68 0.70 0.71 0.67 0.60 0.53 0.45 0.38
0.58 0.61 0.66 0.74 0.81 0.85 0.86 0.82 0.78 0.74 0.71 0.70 0.70 0.68 0.64 0.62 0.61 0.62 0.63 0.64 0.63 0.65 0.66 0.68 0.66 0.63 0.58 0.49 0.41 0.36 0.33 0.32

GFSFLT1_prec_pwat_066.txt.gz
Precipitable_Water
0.89 0.87 0.90 0.93 0.88 0.83 0.87 0.98 1.09 1.16 1.07 1.13 1.07 1.01 0.94 0.96 0.91 0.96 1.02 1.02 1.06 1.11 1.19 1.20 1.22 1.13 1.06 0.98 0.87 0.83 0.75 0.66
0.90 0.90 0.80 0.81 0.87 0.86 0.87 0.90 0.93 0.98 0.88 0.87 0.84 0.83 0.84 0.85 0.89 0.98 1.08 1.15 1.16 1.20 1.19 1.21 1.18 1.10 1.03 0.98 0.91 0.83 0.78 0.74
0.79 0.76 0.76 0.76 0.81 0.83 0.83 0.84 0.85 0.86 0.83 0.79 0.80 0.83 0.86 0.87 0.94 0.97 1.17 1.21 1.23 1.27 1.24 1.24 1.16 1.12 1.07 0.99 0.95 0.90 0.89 0.84
0.76 0.73 0.77 0.84 0.82 0.82 0.79 0.76 0.75 0.80 0.87 0.84 0.83 0.86 0.87 0.87 0.90 0.96 1.12 1.16 1.14 1.22 1.20 1.24 1.20 1.19 1.12 1.07 1.05 1.01 0.89 0.91
0.72 0.74 0.72 0.75 0.77 0.82 0.84 0.85 0.82 0.86 0.94 0.97 0.87 0.76 0.71 0.83 0.87 0.97 1.05 1.15 1.14 1.17 1.18 1.25 1.26 1.22 1.17 1.16 1.17 1.08 1.01 0.90
0.71 0.69 0.72 0.75 0.79 0.80 0.84 0.90 0.91 0.92 0.92 0.95 0.95 0.82 0.81 0.81 0.90 0.96 1.10 1.22 1.20 1.19 1.21 1.25 1.25 1.23 1.21 1.23 1.18 1.12 1.09 1.01
0.77 0.83 0.83 0.83 0.88 0.88 0.85 0.85 0.88 0.96 1.03 1.02 0.98 0.96 0.90 0.84 0.91 0.97 1.09 1.20 1.23 1.22 1.25 1.22 1.22 1.22 1.22 1.24 1.22 1.15 1.09 1.06
0.71 0.79 0.83 0.86 0.87 0.89 0.91 0.87 0.87 0.94 1.02 1.07 1.02 1.05 1.05 0.99 0.96 0.98 1.06 1.16 1.16 1.06 1.18 1.21 1.20 1.21 1.21 1.21 1.18 1.11 1.09 1.04
0.70 0.73 0.84 0.87 0.87 0.89 0.93 0.93 0.92 0.97 1.01 1.07 1.15 1.11 1.13 1.12 1.07 1.06 1.07 1.09 1.08 1.12 1.12 1.20 1.19 1.20 1.22 1.22 1.14 1.12 1.08 1.02
0.72 0.74 0.79 0.89 0.89 0.90 0.93 0.94 0.96 1.00 1.00 1.05 1.05 1.09 1.13 1.23 1.24 1.14 1.15 1.21 1.19 1.21 1.23 1.16 1.17 1.19 1.20 1.13 1.10 1.07 1.03 0.96
0.60 0.76 0.83 0.85 0.92 0.94 0.98 1.01 1.00 1.04 1.04 1.04 1.05 1.11 1.17 1.19 1.25 1.21 1.29 1.30 1.23 1.22 1.18 1.20 1.17 1.13 1.07 1.01 1.06 1.04 0.96 0.91
0.56 0.70 0.85 0.91 0.96 1.01 1.04 1.07 1.08 1.10 1.11 1.13 1.11 1.17 1.22 1.28 1.31 1.28 1.19 1.25 1.23 1.19 1.13 1.12 1.07 1.04 0.97 0.93 0.95 0.94 0.93 0.84
0.57 0.57 0.63 0.86 0.98 1.02 1.15 1.16 1.14 1.18 1.19 1.26 1.29 1.36 1.38 1.25 1.16 1.17 1.20 1.17 1.19 1.13 1.09 1.02 1.00 0.97 0.92 0.89 0.89 0.86 0.80 0.72
0.57 0.58 0.56 0.58 0.78 0.97 1.11 1.23 1.22 1.23 1.24 1.28 1.28 1.28 1.20 1.09 1.07 1.09 1.11 1.08 1.05 1.04 1.02 0.99 0.95 0.90 0.85 0.83 0.81 0.76 0.72 0.72
0.51 0.60 0.62 0.64 0.65 0.74 0.94 1.04 1.08 1.08 1.10 1.10 1.05 1.02 1.04 0.99 1.00 1.03 1.05 1.03 1.02 1.01 1.00 0.94 0.88 0.85 0.81 0.78 0.75 0.73 0.72 0.71
0.46 0.56 0.73 0.76 0.78 0.78 0.81 0.86 0.90 0.93 0.95 0.94 0.91 0.94 0.97 1.02 1.05 1.04 1.04 1.02 0.97 0.95 0.89 0.81 0.78 0.77 0.74 0.74 0.71 0.70 0.69 0.69
0.53 0.54 0.78 0.88 0.84 0.77 0.83 0.87 0.90 0.93 0.91 0.90 0.95 0.97 1.03 1.01 0.99 0.99 0.95 0.90 0.85 0.80 0.77 0.73 0.72 0.71 0.72 0.71 0.70 0.69 0.66 0.60
0.56 0.64 0.88 0.88 0.83 0.80 0.79 0.82 0.88 0.87 0.89 0.93 0.96 0.98 0.95 0.93 0.93 0.84 0.75 0.69 0.67 0.66 0.67 0.67 0.66 0.67 0.68 0.67 0.64 0.57 0.48 0.42
0.57 0.73 0.81 0.81 0.82 0.77 0.77 0.81 0.86 0.87 0.87 0.88 0.88 0.82 0.74 0.71 0.69 0.67 0.64 0.63 0.63 0.62 0.62 0.64 0.64 0.63 0.62 0.56 0.50 0.41 0.36 0.34

GFSFLT1_prec_pwat_072.txt.gz
Precipitable_Water
0.89 0.82 0.89 0.95 1.11 1.26 1.31 1.29 1.28 1.28 1.24 1.22 1.22 1.18 1.17 1.14 1.13 1.16 1.12 1.10 1.03 0.97 0.93 0.94 1.04 1.04 1.09 1.09 1.03 0.99 0.89 0.80
0.87 0.82 0.84 0.89 0.96 1.08 1.16 1.17 1.18 1.20 1.10 1.11 1.07 0.99 1.04 1.03 1.07 1.06 1.07 1.06 1.01 0.97 0.97 0.98 1.01 1.01 1.02 1.03 1.01 0.95 0.91 0.90
0.77 0.76 0.70 0.79 0.88 0.93 0.98 0.99 1.01 1.02 0.98 0.95 0.96 0.94 0.96 0.94 0.93 0.93 0.94 0.93 0.91 0.93 0.94 0.94 0.94 0.96 1.01 1.04 1.03 0.98 0.99 1.00
0.70 0.69 0.65 0.68 0.75 0.81 0.80 0.82 0.83 0.86 0.88 0.85 0.87 0.89 0.87 0.83 0.82 0.84 0.88 0.90 0.92 0.91 0.92 0.90 0.92 0.98 1.00 1.04 1.05 1.01 0.96 1.03
0.71 0.66 0.65 0.62 0.66 0.73 0.74 0.73 0.75 0.78 0.81 0.72 0.71 0.68 0.68 0.75 0.81 0.84 0.87 0.93 0.89 0.93 0.96 0.98 1.00 1.05 1.06 1.08 1.10 1.08 1.07 1.00
0.66 0.63 0.67 0.61 0.62 0.61 0.64 0.66 0.68 0.73 0.77 0.74 0.77 0.78 0.79 0.79 0.79 0.79 0.83 0.87 0.94 0.98 1.03 1.09 1.11 1.14 1.14 1.13 1.13 1.14 1.14 1.05
0.74 0.73 0.74 0.67 0.63 0.62 0.64 0.64 0.67 0.73 0.75 0.75 0.76 0.75 0.75 0.74 0.74 0.74 0.78 0.83 0.91 1.00 1.11 1.15 1.20 1.16 1.16 1.15 1.12 1.16 1.11 1.08
0.72 0.70 0.71 0.70 0.65 0.65 0.69 0.71 0.68 0.71 0.75 0.78 0.76 0.76 0.72 0.68 0.72 0.75 0.77 0.83 0.92 0.99 1.03 1.13 1.17 1.24 1.25 1.22 1.14 1.15 1.13 1.10
0.72 0.71 0.70 0.72 0.75 0.70 0.70 0.71 0.71 0.74 0.76 0.77 0.78 0.84 0.82 0.89 0.93 0.94 0.94 0.92 0.93 0.99 1.03 1.10 1.19 1.27 1.28 1.26 1.18 1.16 1.10 1.08
0.71 0.75 0.78 0.80 0.84 0.85 0.75 0.70 0.71 0.74 0.75 0.82 0.84 0.90 0.98 1.01 1.03 1.03 1.03 1.08 1.10 1.13 1.12 1.17 1.27 1.28 1.29 1.22 1.16 1.10 1.10 1.07
0.70 0.76 0.80 0.83 0.87 0.94 0.99 0.95 0.84 0.77 0.77 0.81 0.87 0.92 0.98 1.07 1.13 1.13 1.13 1.12 1.16 1.16 1.21 1.23 1.24 1.29 1.26 1.23 1.14 1.10 1.07 1.02
0.67 0.74 0.83 0.86 0.89 0.94 0.96 1.02 1.03 1.00 0.99 0.96 0.97 0.95 0.96 1.03 1.10 1.16 1.24 1.33 1.33 1.32 1.18 1.16 1.26 1.24 1.18 1.12 1.10 1.07 1.01 0.89
0.63 0.69 0.74 0.78 0.82 0.88 0.92 1.01 1.04 1.11 1.17 1.20 1.23 1.26 1.30 1.27 1.23 1.30 1.35 1.28 1.23 1.13 1.24 1.25 1.22 1.16 1.16 1.10 1.05 0.99 0.93 0.84
0.51 0.55 0.57 0.63 0.73 0.79 0.87 0.92 1.03 1.14 1.20 1.23 1.15 1.15 1.29 1.29 1.36 1.32 1.31 1.17 1.02 1.13 1.16 1.17 1.17 1.13 1.10 1.06 1.01 0.94 0.87 0.77
0.49 0.57 0.58 0.60 0.61 0.68 0.76 0.85 0.99 1.07 1.17 1.12 0.89 0.97 1.11 1.27 1.24 1.24 1.18 1.11 1.06 1.10 1.16 1.17 1.11 1.07 1.05 1.01 0.95 0.85 0.77 0.78
0.52 0.57 0.63 0.66 0.66 0.68 0.74 0.81 0.90 0.97 0.96 0.86 0.84 0.91 0.95 1.07 1.05 1.07 1.06 1.02 1.06 1.12 1.13 1.08 1.05 1.01 0.98 0.91 0.85 0.79 0.75 0.71
0.54 0.61 0.67 0.66 0.66 0.69 0.74 0.79 0.86 0.95 0.94 0.88 0.83 0.85 0.91 0.93 0.95 0.96 0.96 0.98 1.03 1.05 1.01 0.98 0.94 0.90 0.85 0.77 0.71 0.71 0.70 0.69
0.54 0.58 0.66 0.70 0.71 0.71 0.72 0.80 0.88 0.90 0.85 0.80 0.80 0.84 0.86 0.89 0.91 0.91 0.91 0.95 0.97 0.95 0.90 0.84 0.79 0.75 0.71 0.70 0.71 0.70 0.67 0.64
0.56 0.61 0.67 0.72 0.74 0.72 0.76 0.81 0.85 0.84 0.79 0.79 0.82 0.82 0.84 0.88 0.89 0.87 0.91 0.91 0.83 0.77 0.75 0.71 0.67 0.66 0.67 0.68 0.67 0.64 0.59 0.53

GFSFLT1_prec_pwat_075.txt.gz
Precipitable_Water
0.82 0.81 0.81 0.89 1.11 1.23 1.27 1.29 1.35 1.37 1.33 1.34 1.35 1.31 1.26 1.27 1.17 1.10 1.04 1.01 1.00 0.96 0.94 0.92 0.94 1.01 1.03 1.06 1.06 1.06 1.00 0.91
0.85 0.84 0.78 0.84 1.03 1.20 1.26 1.28 1.32 1.31 1.28 1.24 1.25 1.19 1.19 1.13 1.09 1.13 1.10 1.05 0.99 0.96 0.98 0.97 0.94 0.93 0.99 1.05 1.06 1.01 0.99 0.96
0.77 0.76 0.73 0.78 0.88 1.01 1.13 1.19 1.25 1.27 1.25 1.25 1.23 1.18 1.18 1.13 1.14 1.09 1.06 1.04 1.01 0.99 1.00 0.94 0.95 0.91 0.96 1.00 1.01 1.00 1.01 1.01
0.72 0.68 0.68 0.70 0.79 0.85 0.93 0.99 1.06 1.17 1.19 1.17 1.13 1.10 1.09 1.04 1.01 1.00 1.03 1.03 1.04 1.04 1.01 0.94 0.93 0.93 0.88 0.90 0.98 0.99 0.95 1.01
0.68 0.65 0.63 0.60 0.73 0.82 0.84 0.89 0.92 1.00 1.00 0.94 0.92 0.88 0.86 0.87 0.87 0.89 0.90 0.96 0.96 0.97 0.95 0.91 0.91 0.91 0.92 0.92 1.00 1.03 1.03 0.96
0.59 0.59 0.63 0.65 0.67 0.72 0.77 0.81 0.84 0.90 0.91 0.86 0.82 0.80 0.81 0.83 0.83 0.80 0.83 0.88 0.90 0.90 0.91 0.90 0.92 0.98 1.00 1.02 1.07 1.06 1.10 1.04
0.69 0.73 0.75 0.70 0.67 0.67 0.68 0.69 0.71 0.77 0.79 0.80 0.78 0.76 0.75 0.73 0.72 0.73 0.78 0.86 0.88 0.90 0.96 0.93 0.97 1.04 1.10 1.11 1.13 1.14 1.12 1.10
0.65 0.68 0.70 0.72 0.70 0.66 0.67 0.66 0.65 0.69 0.72 0.73 0.74 0.72 0.73 0.69 0.71 0.76 0.79 0.81 0.84 0.87 0.91 0.95 0.99 1.07 1.14 1.18 1.23 1.24 1.18 1.10
0.66 0.70 0.70 0.68 0.71 0.70 0.66 0.66 0.65 0.68 0.70 0.71 0.75 0.73 0.73 0.78 0.80 0.82 0.82 0.81 0.82 0.88 0.92 0.95 0.98 1.06 1.13 1.23 1.29 1.27 1.23 1.13
0.64 0.72 0.75 0.74 0.73 0.73 0.72 0.66 0.66 0.68 0.69 0.72 0.75 0.76 0.78 0.81 0.86 0.85 0.82 0.86 0.93 1.01 1.05 1.03 1.09 1.09 1.14 1.25 1.28 1.22 1.18 1.12
0.66 0.74 0.78 0.81 0.81 0.84 0.89 0.88 0.76 0.71 0.74 0.77 0.79 0.82 0.85 0.88 0.89 0.89 0.93 1.04 1.13 1.19 1.23 1.25 1.23 1.19 1.22 1.23 1.23 1.25 1.21 1.16
0.62 0.70 0.78 0.83 0.88 0.90 0.91 0.92 0.94 0.96 0.94 0.94 0.94 0.94 0.95 0.97 0.98 1.01 1.09 1.20 1.25 1.29 1.31 1.29 1.26 1.23 1.20 1.20 1.19 1.21 1.14 1.11
0.58 0.63 0.71 0.77 0.81 0.86 0.89 0.93 0.97 1.05 1.14 1.16 1.18 1.14 1.04 1.07 1.08 1.13 1.14 1.15 1.24 1.24 1.21 1.17 1.10 1.12 1.17 1.14 1.14 1.17 1.11 1.08
0.57 0.61 0.63 0.66 0.72 0.75 0.78 0.84 0.89 0.98 1.09 1.12 1.11 1.10 1.06 0.98 1.03 1.14 1.21 1.23 1.31 1.16 1.09 1.08 1.13 1.10 1.17 1.18 1.16 1.11 1.09 1.02
0.54 0.57 0.57 0.61 0.65 0.66 0.67 0.74 0.81 0.85 0.92 1.00 1.01 1.13 1.01 1.00 1.02 1.13 1.23 1.21 1.19 1.11 1.14 1.13 1.09 1.09 1.10 1.11 1.11 1.06 0.99 0.96
0.53 0.54 0.57 0.61 0.63 0.65 0.65 0.70 0.75 0.83 0.87 0.95 0.98 1.03 1.08 1.07 1.03 1.04 1.10 1.10 1.09 1.08 1.10 1.04 1.06 1.07 1.08 1.07 1.03 0.98 0.93 0.83
0.53 0.58 0.59 0.60 0.63 0.65 0.69 0.71 0.71 0.78 0.84 0.92 1.01 1.06 1.05 1.00 0.96 0.97 1.00 1.02 1.04 1.03 1.00 1.03 1.03 1.03 1.04 1.01 0.97 0.89 0.85 0.79
0.52 0.57 0.57 0.61 0.65 0.70 0.70 0.75 0.79 0.81 0.86 0.90 0.96 0.95 0.91 0.90 0.92 0.90 0.92 0.95 1.00 0.98 0.97 1.00 0.98 0.98 0.95 0.91 0.86 0.80 0.73 0.69
0.48 0.56 0.60 0.68 0.72 0.74 0.77 0.78 0.75 0.80 0.85 0.88 0.92 0.89 0.88 0.87 0.82 0.85 0.89 0.93 0.93 0.92 0.97 0.97 0.89 0.86 0.84 0.80 0.76 0.70 0.67 0.64